This is the latest recevied weather packets stored in our database for station/object EA5LU-10. If no packets are shown the sender has not sent any weather packets the latest 10 day(s).
| Time | Temp. | Humidity | Pressure | Rain* | Wind** | Luminosity | Snow |
|---|---|---|---|---|---|---|---|
| 1777548822 | 25.56° C | 54% | 1007.1 hPa | - | - | - | - |
| 1777547921 | 25° C | 53% | 1007.2 hPa | - | - | - | - |
| 1777547020 | 25° C | 53% | 1007.1 hPa | - | - | - | - |
| 1777546119 | 24.44° C | 54% | 1006.9 hPa | - | - | - | - |
| 1777545219 | 24.44° C | 57% | 1007 hPa | - | - | - | - |
| 1777544318 | 23.89° C | 58% | 1007.1 hPa | - | - | - | - |
| 1777543417 | 23.33° C | 58% | 1007.2 hPa | - | - | - | - |
| 1777542516 | 23.89° C | 60% | 1007.3 hPa | - | - | - | - |
| 1777541615 | 23.33° C | 60% | 1007.4 hPa | - | - | - | - |
| 1777540714 | 23.33° C | 62% | 1007.5 hPa | - | - | - | - |
| 1777539814 | 22.22° C | 62% | 1007.5 hPa | - | - | - | - |
| 1777538913 | 22.22° C | 63% | 1007.5 hPa | - | - | - | - |
| 1777538012 | 21.67° C | 65% | 1007.5 hPa | - | - | - | - |
| 1777537111 | 21.11° C | 68% | 1007.5 hPa | - | - | - | - |
| 1777536210 | 20.56° C | 71% | 1007.4 hPa | - | - | - | - |
| 1777535309 | 19.44° C | 75% | 1007.4 hPa | - | - | - | - |
| 1777534409 | 18.89° C | 77% | 1007.4 hPa | - | - | - | - |
| 1777533508 | 18.33° C | 80% | 1007.3 hPa | - | - | - | - |
| 1777532607 | 17.22° C | 82% | 1007.3 hPa | - | - | - | - |
| 1777531706 | 16.67° C | 82% | 1007.1 hPa | - | - | - | - |
| 1777530805 | 16.67° C | 83% | 1007 hPa | - | - | - | - |
| 1777529905 | 16.67° C | 83% | 1006.8 hPa | - | - | - | - |
| 1777529004 | 16.11° C | 85% | 1006.8 hPa | - | - | - | - |
| 1777528103 | 15.56° C | 86% | 1006.7 hPa | - | - | - | - |
| 1777527202 | 15° C | 87% | 1006.5 hPa | - | - | - | - |
* Rain since midnight (hover to see other rain measurements)
** Current wind speed in m/s (hover to see current wind gust speed)